Location: Newark
(34.6283°N, 36.0776°E)
Time: 01:44:20
(UTC+00:00)

S-56A Canister/Altair - Pass Details

Date: 20 October 2019
Orbit: 634 x 2498 km, 38.9° (Epoch: 19 November)

Event Time Altitude Azimuth Distance (km) Brightness Sun altitude
Rises 02:10:22 0° 274° (W) 3,691 - -20.2°
Reaches altitude 10° 02:12:38 10° 277° (W) 2,930 - -19.7°
Exits shadow 02:15:23 28° 285° (WNW) 2,114 9.2 -19.1°
Maximum altitude 02:19:56 68° 1° (N) 1,542 9.0 -18.2°
Drops below altitude 10° 02:31:14 10° 83° (E) 4,408 12.7 -15.9°
Sets 02:35:25 0° 86° (E) 5,660 13.8 -15.0°
